This is the latest recevied weather packets stored in our database for station/object DH0DM-13. If no packets are shown the sender has not sent any weather packets the latest 10 day(s).
| Time | Temp. | Humidity | Pressure | Rain* | Wind** | Luminosity | Snow |
|---|---|---|---|---|---|---|---|
| 1787888020 | 20.56° C | 61% | 985.5 hPa | 0 mm | 6.71 m/s, 74° | - | - |
| 1787887419 | 21.11° C | 61% | 985.8 hPa | 0 mm | 6.71 m/s, 59° | - | - |
| 1787886818 | 21.11° C | 61% | 986 hPa | 0 mm | 4.92 m/s, 96° | - | - |
| 1787886217 | 21.11° C | 60% | 985.8 hPa | 0 mm | 4.92 m/s, 92° | - | - |
| 1787885616 | 21.11° C | 60% | 986.2 hPa | 0 mm | 5.81 m/s, 100° | - | - |
| 1787885015 | 21.11° C | 61% | 986.1 hPa | 0 mm | 3.13 m/s, 91° | - | - |
| 1787884414 | 21.11° C | 60% | 986.4 hPa | 0 mm | 1.34 m/s, 61° | - | - |
| 1787883813 | 20.56° C | 61% | 986.2 hPa | 0 mm | 3.58 m/s, 143° | - | - |
| 1787883212 | 20.56° C | 62% | 986.3 hPa | 0 mm | 2.68 m/s, 91° | - | - |
| 1787882611 | 20.56° C | 62% | 986.4 hPa | 0 mm | 1.79 m/s, 59° | - | - |
| 1787882011 | 20.56° C | 62% | 986.3 hPa | 0 mm | 6.26 m/s, 57° | - | - |
| 1787881410 | 21.11° C | 61% | 986.6 hPa | 0 mm | 2.68 m/s, 344° | - | - |
| 1787880809 | 21.11° C | 60% | 986.8 hPa | 0 mm | 3.13 m/s, 93° | - | - |
| 1787880208 | 21.11° C | 60% | 986.9 hPa | 0 mm | 4.92 m/s, 37° | - | - |
| 1787879607 | 21.11° C | 60% | 987.1 hPa | 0 mm | 1.34 m/s, 243° | - | - |
| 1787879006 | 21.11° C | 60% | 986.9 hPa | 0 mm | 2.68 m/s, 101° | - | - |
| 1787878405 | 21.11° C | 60% | 987.1 hPa | 0 mm | 4.92 m/s, 104° | - | - |
| 1787877804 | 21.11° C | 59% | 987.3 hPa | 0 mm | 5.36 m/s, 95° | - | - |
| 1787877203 | 21.11° C | 59% | 987.1 hPa | 0 mm | 4.02 m/s, 7° | - | - |
| 1787876602 | 21.11° C | 61% | 987.1 hPa | 0 mm | 4.92 m/s, 127° | - | - |
| 1787876001 | 20° C | 64% | 987.5 hPa | 0 mm | 7.15 m/s, 91° | - | - |
| 1787875400 | 20° C | 66% | 987.4 hPa | 0 mm | 4.92 m/s, 125° | - | - |
| 1787874800 | 19.44° C | 66% | 987.5 hPa | 0 mm | 7.6 m/s, 68° | - | - |
| 1787874198 | 19.44° C | 67% | 987.5 hPa | 0 mm | 4.92 m/s, 74° | - | - |
| 1787873597 | 19.44° C | 68% | 987.7 hPa | 0 mm | 6.71 m/s, 63° | - | - |
* Rain since midnight (hover to see other rain measurements)
** Current wind speed in m/s (hover to see current wind gust speed)